User: anonymous   Login
Location: Gairloch Mountain Observatory
(46.1383°N, 60.9640°W)
Time: 08:01:30
(UTC-03:00)
Language:

CENTAUR R/B - Orbit

View from above orbital plane
View from above orbital plane
View from above satellite
View from above satellite

Ground track
Ground track

The orbit data is extracted from the following two-line orbital elements,

1 26906U 01040B   18170.86841488 0.00000000  00000-0  00000-0 0    05
2 26906  63.4567 110.5880 0387756 341.2323  18.7676 13.44029231    07
Epoch (UTC): 19 June 2018 20:50:31
Eccentricity: 0.0387756
inclination: 63.4567°
perigee height: 804 km
apogee height: 1384 km
right ascension of ascending node: 110.5880°
argument of perigee: 341.2323°
revolutions per day: 13.44029231
mean anomaly at epoch: 18.7676°
orbit number at epoch: 0

The dashed part of the orbit path shows where the satellite is in the earth's shadow,  

DLR